Moline, IL
on Thursday, August 22, 2013

Thursday
Previous Day Next Day
Daily Summary
 ActualAverageRecord
Temperature
Mean Temperature °F 73°F  
Max Temperature 79°F 83°F 101°F (1936)
Min Temperature 65°F 63°F 47°F (1923)
Degree Days
Heating Degree Days 0 0  
Month to date heating degree days 4 0  
Since 1 June heating degree days 38 21  
Since 1 July heating degree days 11 2  
Cooling Degree Days 7 8  
Month to date cooling degree days 128 203  
Year to date cooling degree days 679 817  
Since 1 June cooling degree days 589 741  
Growing Degree Days22 (Base °F )  
Moisture
Dew Point 66°F   
Average Humidity 79    
Maximum Humidity 93    
Minimum Humidity 64    
Precipitation
Precipitation 0.00 in 0.14 in 1.77 in (1988)
Month to date precipitation 0.76 3.25  
Year to date precipitation 32.61 25.89  
Since 1 June precipitation 9.46 12.03  
Snow
Snow 0.00 in 0.00 in in ()
Month to date snowfall 0.0 0.0  
Since 1 June snowfall 0.0 0.0  
Since 1 July snowfall 0.0 0.0  
Snow Depth 0.00 in   
Wind
Wind Speed 6 mph   
Max Wind Speed 20 mph   
Max Gust Speed 25 mph   
Visibility 10 miles   
Events     

Key: T is trace of precipitation, MM is missing value
Source: NWS Daily Summary
Time(CDT)TemperatureDew PointHumidity Pressure Visibility Wind DirectionWind SpeedGust SpeedPrecipitationEvents Conditions
12:52 AM 75.9°F 66.0°F 71% 30.01 in 10.0 miles SW 4.6 mph - N/A   Partly Cloudy
1:52 AM 75.0°F 66.0°F 73% 30.00 in 10.0 miles WSW 4.6 mph - N/A   Clear
2:52 AM 73.9°F 66.0°F 76% 29.99 in 10.0 miles SSW 8.1 mph - N/A   Clear
3:52 AM 73.9°F 66.0°F 76% 30.02 in 10.0 miles WSW 4.6 mph - N/A   Partly Cloudy
4:52 AM 73.0°F 66.0°F 79% 30.01 in 10.0 miles West 4.6 mph - N/A   Partly Cloudy
5:52 AM 71.1°F 66.0°F 84% 30.01 in 10.0 miles Calm Calm - N/A   Partly Cloudy
6:52 AM 73.0°F 66.0°F 79% 30.01 in 9.0 miles WSW 4.6 mph - N/A   Overcast
7:52 AM 75.0°F 66.9°F 76% 30.03 in 10.0 miles WSW 6.9 mph - N/A   Overcast
8:52 AM 78.1°F 66.9°F 68% 30.04 in 9.0 miles West 5.8 mph - N/A   Scattered Clouds
9:52 AM 78.1°F 66.9°F 68% 30.08 in 9.0 miles North 8.1 mph - N/A   Mostly Cloudy
10:08 AM 77.0°F 66.2°F 69% 30.10 in 9.0 miles North 6.9 mph - N/A   Overcast
10:36 AM 78.8°F 66.2°F 65% 30.12 in 10.0 miles NNE 10.4 mph - N/A   Mostly Cloudy
10:52 AM 77.0°F 66.0°F 69% 30.12 in 10.0 miles NE 12.7 mph 19.6 mph N/A   Overcast
11:52 AM 75.9°F 64.0°F 67% 30.13 in 10.0 miles NE 10.4 mph - N/A   Mostly Cloudy
11:59 AM 75.2°F 64.4°F 69% 30.12 in 10.0 miles ENE 11.5 mph - N/A   Mostly Cloudy
12:52 PM 75.0°F 64.9°F 71% 30.09 in 10.0 miles ESE 12.7 mph - N/A   Mostly Cloudy
1:52 PM 75.0°F 66.0°F 73% 30.07 in 10.0 miles ESE 12.7 mph - N/A   Partly Cloudy
2:52 PM 73.9°F 66.0°F 76% 30.06 in 10.0 miles ESE 9.2 mph - N/A   Clear
3:52 PM 75.0°F 64.9°F 71% 30.05 in 10.0 miles South 5.8 mph - N/A   Clear
4:52 PM 77.0°F 64.9°F 66% 30.06 in 10.0 miles Variable 4.6 mph - N/A   Clear
5:52 PM 78.1°F 66.0°F 66% 30.06 in 10.0 miles Calm Calm - N/A   Partly Cloudy
6:39 PM 78.8°F 66.2°F 65% 30.07 in 10.0 miles Calm Calm - N/A   Overcast
6:52 PM 78.1°F 66.9°F 68% 30.05 in 10.0 miles North 4.6 mph - N/A   Overcast
7:32 PM 77.0°F 66.2°F 69% 30.07 in 10.0 miles Calm Calm - N/A   Overcast
7:52 PM 75.9°F 66.0°F 71% 30.06 in 10.0 miles North 3.5 mph - N/A   Scattered Clouds
8:52 PM 73.9°F 64.9°F 73% 30.07 in 10.0 miles NE 4.6 mph - N/A   Clear
9:52 PM 68.0°F 64.0°F 87% 30.09 in 10.0 miles East 5.8 mph - N/A   Clear
10:52 PM 66.9°F 64.0°F 90% 30.09 in 10.0 miles ESE 3.5 mph - N/A   Clear
11:52 PM 66.0°F 64.0°F 93% 30.10 in 8.0 miles ESE 3.5 mph - N/A   Clear
Astronomy
Sunrise:06:18 AM (CDT) Moon Rise:08:32 PM (CDT)8/22
Sunset:07:50 PM (CDT) Moon Set:08:09 AM (CDT)8/22
Moon Phase
Aug. 22 Aug. 28 Sep. 05 Sep. 12 Sep. 19

Copyright © 2014 The Weather Underground, Inc.